This is the latest recevied weather packets stored in our database for station/object N6RDS-8. If no packets are shown the sender has not sent any weather packets the latest 10 day(s).
| Time | Temp. | Humidity | Pressure | Rain* | Wind** | Luminosity | Snow |
|---|---|---|---|---|---|---|---|
| 1778092794 | 22.78° C | 25% | 1019.8 hPa | 0 mm | - | 759 W/m² | - |
| 1778092489 | 21.67° C | 27% | 1019.9 hPa | 0 mm | - | 755 W/m² | - |
| 1778092182 | 22.22° C | 26% | 1019.9 hPa | 0 mm | - | 749 W/m² | - |
| 1778091879 | 20.56° C | 26% | 1020 hPa | 0 mm | - | 745 W/m² | - |
| 1778091576 | 21.67° C | 27% | 1020 hPa | 0 mm | - | 740 W/m² | - |
| 1778091274 | 22.22° C | 26% | 1020 hPa | 0 mm | - | 734 W/m² | - |
| 1778090970 | 22.22° C | 27% | 1020.1 hPa | 0 mm | - | 728 W/m² | - |
| 1778090666 | 21.11° C | 26% | 1020.3 hPa | 0 mm | - | 721 W/m² | - |
| 1778090363 | 21.11° C | 27% | 1020.4 hPa | 0 mm | - | 713 W/m² | - |
| 1778090060 | 20.56° C | 29% | 1020.3 hPa | 0 mm | - | 707 W/m² | - |
| 1778089757 | 21.11° C | 29% | 1020.4 hPa | 0 mm | - | 698 W/m² | - |
| 1778089454 | 20° C | 29% | 1020.1 hPa | 0 mm | - | 690 W/m² | - |
| 1778089151 | 20.56° C | 30% | 1020.3 hPa | 0 mm | - | 681 W/m² | - |
| 1778088848 | 20° C | 29% | 1020.3 hPa | 0 mm | - | 671 W/m² | - |
| 1778088545 | 21.11° C | 31% | 1020.4 hPa | 0 mm | - | 665 W/m² | - |
| 1778088241 | 20.56° C | 33% | 1020.3 hPa | 0 mm | - | 654 W/m² | - |
| 1778087939 | 20.56° C | 33% | 1020.1 hPa | 0 mm | - | 646 W/m² | - |
| 1778087636 | 20° C | 34% | 1020.1 hPa | 0 mm | - | 635 W/m² | - |
| 1778087334 | 20° C | 34% | 1020.1 hPa | 0 mm | - | 624 W/m² | - |
| 1778087029 | 19.44° C | 37% | 1020.3 hPa | 0 mm | - | 611 W/m² | - |
| 1778086723 | 18.89° C | 39% | 1020.3 hPa | 0 mm | - | 601 W/m² | - |
| 1778086421 | 19.44° C | 37% | 1020.3 hPa | 0 mm | - | 590 W/m² | - |
| 1778086112 | 18.89° C | 39% | 1020.4 hPa | 0 mm | - | 578 W/m² | - |
| 1778085808 | 18.33° C | 40% | 1020.3 hPa | 0 mm | - | 568 W/m² | - |
| 1778085506 | 18.33° C | 41% | 1020.1 hPa | 0 mm | - | 554 W/m² | - |
* Rain latest hour (hover to see other rain measurements)
** Current wind speed in m/s (hover to see current wind gust speed)